sat.trackr.live / text

‹ back to catalog

STARLINK-35338

NORAD 66250 · 2025-245S

PAYLOAD ACTIVE UNKNOWN

§ Identity

Operator
Country
US
Launch date
2025-10-29
Launch site
AFETR
Launch vehicle
Mass (kg)
RCS (m²)

Purposes: comms

External: N2YO · Heavens-Above · Gunter

§ Orbital elements

Epoch: 2026-09-20T22:42:07.626240Z

Period
94.01 min
Inclination
53.1581°
Eccentricity
0.0001373
Mean motion
15.31740381 rev/d
Perigee alt
469.7 km
Apogee alt
471.6 km
Semi-major
6,848.8 km
B*
6.8663e-4
RAAN
95.3501°
Arg perigee
86.0299°
Mean anomaly
274.0860°
Rev number
5,107

§ Raw data

STARLINK-353381 66250U 25245S   26263.94592160  .00021029  00000+0  68663-3 0  99972 66250  53.1581  95.3501 0001373  86.0299 274.0860 15.31740381 51078

JSON: /api/v1/satellites/66250 · /tle

For live sub-satellite position, see the globe view (requires WebGL).

§ Visibility from observer

Set your observer location to see the next 7 days of passes ≥ 10°. The values pass through the URL so the page stays shareable.

No JS? Fill the form by hand. The geolocation button needs JavaScript.